Powrót do katalogu

SL-8 R/B

AktywnyPO
NORAD 20046·ROCKET BODY·🇷🇺 Russia

Wystrzelony Jun 7, 1989 z Plesetsk Cosmodrome

Loading…

Następne Przeloty (najbliższe 24 godziny)

TLE

ŚwieżeSource: Space-Track

Epoka: Sep 14, 2026, 13:18 UTC

1 20046U 89042B   26257.55442579  .00000112  00000-0  94691-4 0  9995
2 20046  82.9361 305.9911 0040913 319.3216  40.4888 13.78652958874154

Śledź SL-8 R/B w czasie rzeczywistym z AllMySat

Download on the App Store